Tracking 28790 objects as of 19-Apr-2024
HD Live streaming from Space Station
objects crossing your sky now

STARLINK-1715

Track STARLINK-1715 now!
10-day predictions
STARLINK-1715 is classified as:


NORAD ID: 46671
Int'l Code: 2020-073B
Perigee: 553.4 km
Apogee: 555.3 km
Inclination: 53.1 °
Period: 95.6 minutes
Semi major axis: 6925 km
RCS: Unknown
Launch date: October 18, 2020
Source: United States (US)
Launch site: AIR FORCE EASTERN TEST RANGE (AFETR)
Your satellite tracking list
Your tracking list is empty




NASA's NSSDC Master Catalog

Two Line Element Set (TLE):
1 46671U 20073B   24110.19658639 -.00000349  00000-0 -45500-5 0  9998
2 46671  53.0532 102.1096 0001334 112.1898 247.9233 15.06394971193619
Source of the keplerian elements: AFSPC